Вернуться в каталог

STARLINK-4432

АктивенСвязьSSO
NORAD 53487·PAYLOAD·🇺🇸 United States

Запущен Aug 12, 2022 с Vandenberg Space Force Base

Loading…

Ближайшие Пролёты (ближайшие 24 часа)

TLE

СвежийSource: CelesTrak SupGP

Эпоха: Sep 15, 2026, 02:27 UTC

1 53487C 22099Y   26258.10256944  .00005378  00000+0  16698-3 0  2586
2 53487  97.2856  15.8860 0001394  90.6424 335.1149 15.33432608    18

Отслеживайте STARLINK-4432 в реальном времени с AllMySat

Download on the App Store